Time,TemperatureF,DewpointF,PressureIn,WindDirection,WindDirectionDegrees,WindSpeedMPH,WindSpeedGustMPH,Humidity,HourlyPrecipIn,Conditions,Clouds,dailyrainin,SoftwareType,DateUTC
2013-05-18 00:10:00,67.1,65.0,30.11,North,4,5.0,10.0,93,0.31,,,0.00,weatherlink.com 1.10,2013-05-18 04:10:00,
2013-05-18 00:25:00,67.2,65.0,30.11,North,1,3.0,8.0,93,0.27,,,0.01,weatherlink.com 1.10,2013-05-18 04:25:00,
2013-05-18 00:40:00,67.2,65.0,30.11,NNE,20,4.0,6.0,93,0.07,,,0.01,weatherlink.com 1.10,2013-05-18 04:40:00,
2013-05-18 00:55:00,67.0,65.0,30.11,ENE,60,1.0,5.0,93,0.02,,,0.01,weatherlink.com 1.10,2013-05-18 04:55:00,
2013-05-18 01:10:00,66.8,65.0,30.11,NNE,25,0.0,1.0,93,0.01,,,0.01,weatherlink.com 1.10,2013-05-18 05:10:00,
2013-05-18 01:25:00,66.4,64.0,30.10,East,81,2.0,4.0,93,0.00,,,0.01,weatherlink.com 1.10,2013-05-18 05:25:00,
2013-05-18 01:40:00,66.1,64.0,30.10,ENE,65,3.0,3.0,94,0.00,,,0.01,weatherlink.com 1.10,2013-05-18 05:40:00,
2013-05-18 01:56:00,65.8,64.0,30.09,ENE,65,0.0,1.0,94,0.00,,,0.01,weatherlink.com 1.10,2013-05-18 05:56:00,
2013-05-18 02:11:00,65.6,64.0,30.09,ENE,65,0.0,1.0,94,0.00,,,0.01,weatherlink.com 1.10,2013-05-18 06:11:00,
2013-05-18 02:26:00,65.3,64.0,30.08,ENE,65,0.0,1.0,94,0.00,,,0.01,weatherlink.com 1.10,2013-05-18 06:26:00,
2013-05-18 02:41:00,65.0,64.0,30.08,ENE,65,0.0,1.0,95,0.00,,,0.01,weatherlink.com 1.10,2013-05-18 06:41:00,
2013-05-18 02:56:00,64.7,63.0,30.08,NNW,345,0.0,3.0,95,0.00,,,0.01,weatherlink.com 1.10,2013-05-18 06:56:00,
2013-05-18 03:11:00,64.6,63.0,30.08,NNW,345,0.0,1.0,95,0.00,,,0.01,weatherlink.com 1.10,2013-05-18 07:11:00,
2013-05-18 03:26:00,64.4,63.0,30.09,NNW,345,0.0,0.0,95,0.00,,,0.01,weatherlink.com 1.10,2013-05-18 07:26:00,
2013-05-18 03:41:00,64.4,63.0,30.09,NNW,345,0.0,2.0,95,0.00,,,0.01,weatherlink.com 1.10,2013-05-18 07:41:00,
2013-05-18 03:56:00,64.6,63.0,30.10,North,349,0.0,3.0,95,0.00,,,0.01,weatherlink.com 1.10,2013-05-18 07:56:00,
2013-05-18 04:11:00,64.5,63.0,30.10,NE,37,0.0,2.0,95,0.00,,,0.01,weatherlink.com 1.10,2013-05-18 08:11:00,
2013-05-18 04:26:00,64.4,63.0,30.11,NNE,32,0.0,2.0,95,0.00,,,0.01,weatherlink.com 1.10,2013-05-18 08:26:00,
2013-05-18 04:41:00,64.3,63.0,30.11,NNE,32,0.0,1.0,95,0.00,,,0.01,weatherlink.com 1.10,2013-05-18 08:41:00,
2013-05-18 04:56:00,64.1,63.0,30.11,NNE,32,1.0,3.0,95,0.00,,,0.01,weatherlink.com 1.10,2013-05-18 08:56:00,
2013-05-18 05:11:00,63.9,63.0,30.11,NE,41,1.0,3.0,95,0.00,,,0.01,weatherlink.com 1.10,2013-05-18 09:11:00,
2013-05-18 05:26:00,63.5,62.0,30.11,North,1,2.0,4.0,95,0.00,,,0.01,weatherlink.com 1.10,2013-05-18 09:26:00,
2013-05-18 05:41:00,62.9,62.0,30.11,NNE,20,3.0,4.0,95,0.00,,,0.01,weatherlink.com 1.10,2013-05-18 09:41:00,
2013-05-18 05:56:00,62.3,61.0,30.12,NNE,21,2.0,4.0,94,0.00,,,0.01,weatherlink.com 1.10,2013-05-18 09:56:00,
2013-05-18 06:11:00,61.9,60.0,30.12,North,360,2.0,3.0,94,0.00,,,0.01,weatherlink.com 1.10,2013-05-18 10:11:00,
2013-05-18 06:26:00,61.4,60.0,30.13,North,360,0.0,4.0,95,0.00,,,0.01,weatherlink.com 1.10,2013-05-18 10:26:00,
2013-05-18 06:41:00,61.3,60.0,30.13,North,359,1.0,2.0,95,0.00,,,0.01,weatherlink.com 1.10,2013-05-18 10:41:00,
2013-05-18 06:56:00,61.3,60.0,30.14,NNW,340,1.0,4.0,95,0.00,,,0.01,weatherlink.com 1.10,2013-05-18 10:56:00,
2013-05-18 07:11:00,61.5,60.0,30.14,NNW,345,0.0,3.0,95,0.00,,,0.01,weatherlink.com 1.10,2013-05-18 11:11:00,
2013-05-18 07:26:00,61.7,60.0,30.14,North,360,3.0,3.0,95,0.00,,,0.01,weatherlink.com 1.10,2013-05-18 11:26:00,
2013-05-18 07:41:00,61.8,60.0,30.15,North,359,1.0,4.0,95,0.00,,,0.01,weatherlink.com 1.10,2013-05-18 11:41:00,
2013-05-18 07:56:00,62.0,60.0,30.15,NE,35,4.0,4.0,94,0.00,,,0.01,weatherlink.com 1.10,2013-05-18 11:56:00,
2013-05-18 08:11:00,62.2,61.0,30.15,NE,46,2.0,4.0,94,0.00,,,0.01,weatherlink.com 1.10,2013-05-18 12:11:00,
2013-05-18 08:26:00,62.5,61.0,30.16,NE,48,1.0,5.0,94,0.00,,,0.01,weatherlink.com 1.10,2013-05-18 12:26:00,
2013-05-18 08:41:00,62.9,61.0,30.16,ENE,76,1.0,5.0,94,0.00,,,0.01,weatherlink.com 1.10,2013-05-18 12:41:00,
2013-05-18 08:56:00,63.4,62.0,30.17,SE,127,1.0,3.0,94,0.00,,,0.01,weatherlink.com 1.10,2013-05-18 12:56:00,
2013-05-18 09:11:00,63.8,62.0,30.18,NW,309,2.0,2.0,94,0.00,,,0.01,weatherlink.com 1.10,2013-05-18 13:11:00,
2013-05-18 09:26:00,63.9,62.0,30.18,NW,312,4.0,5.0,94,0.00,,,0.01,weatherlink.com 1.10,2013-05-18 13:26:00,
2013-05-18 09:41:00,64.0,62.0,30.18,NW,311,2.0,5.0,94,0.00,,,0.01,weatherlink.com 1.10,2013-05-18 13:41:00,
2013-05-18 09:56:00,64.4,63.0,30.17,NNE,32,4.0,6.0,94,0.00,,,0.01,weatherlink.com 1.10,2013-05-18 13:56:00,
2013-05-18 10:11:00,65.3,64.0,30.17,NE,47,3.0,6.0,94,0.00,,,0.01,weatherlink.com 1.10,2013-05-18 14:11:00,
2013-05-18 10:26:00,65.6,64.0,30.16,NE,56,5.0,8.0,93,0.00,,,0.01,weatherlink.com 1.10,2013-05-18 14:26:00,
2013-05-18 10:41:00,65.9,64.0,30.17,SE,126,2.0,6.0,93,0.00,,,0.01,weatherlink.com 1.10,2013-05-18 14:41:00,
2013-05-18 10:56:00,66.2,64.0,30.17,North,1,2.0,4.0,93,0.00,,,0.01,weatherlink.com 1.10,2013-05-18 14:56:00,
2013-05-18 11:11:00,66.4,64.0,30.17,NNE,32,2.0,4.0,92,0.00,,,0.01,weatherlink.com 1.10,2013-05-18 15:11:00,
2013-05-18 11:26:00,66.5,65.0,30.17,North,359,4.0,5.0,93,0.00,,,0.01,weatherlink.com 1.10,2013-05-18 15:26:00,
2013-05-18 11:41:00,66.8,65.0,30.17,NNE,25,1.0,4.0,93,0.00,,,0.01,weatherlink.com 1.10,2013-05-18 15:41:00,
2013-05-18 11:56:00,66.9,65.0,30.17,ENE,70,2.0,6.0,92,0.00,,,0.01,weatherlink.com 1.10,2013-05-18 15:56:00,
2013-05-18 12:11:00,67.0,65.0,30.16,NNE,32,4.0,6.0,92,0.00,,,0.01,weatherlink.com 1.10,2013-05-18 16:11:00,
2013-05-18 12:26:00,67.4,65.0,30.16,NNE,33,2.0,5.0,92,0.00,,,0.01,weatherlink.com 1.10,2013-05-18 16:26:00,
2013-05-18 12:41:00,67.4,65.0,30.16,NNE,20,2.0,4.0,92,0.00,,,0.01,weatherlink.com 1.10,2013-05-18 16:41:00,
2013-05-18 12:56:00,67.9,66.0,30.16,North,359,2.0,4.0,92,0.00,,,0.01,weatherlink.com 1.10,2013-05-18 16:56:00,
2013-05-18 13:11:00,68.1,66.0,30.16,NE,35,2.0,3.0,93,0.00,,,0.01,weatherlink.com 1.10,2013-05-18 17:11:00,
2013-05-18 13:26:00,68.7,66.0,30.15,ENE,77,2.0,4.0,91,0.00,,,0.01,weatherlink.com 1.10,2013-05-18 17:26:00,
2013-05-18 13:41:00,68.5,66.0,30.17,South,174,3.0,6.0,91,0.00,,,0.01,weatherlink.com 1.10,2013-05-18 17:41:00,
2013-05-18 13:56:00,68.1,66.0,30.17,South,172,0.0,4.0,93,0.03,,,0.04,weatherlink.com 1.10,2013-05-18 17:56:00,
2013-05-18 14:11:00,67.8,66.0,30.16,South,172,0.0,1.0,94,0.08,,,0.09,weatherlink.com 1.10,2013-05-18 18:11:00,
2013-05-18 14:26:00,67.9,66.0,30.15,NW,313,0.0,2.0,94,0.08,,,0.09,weatherlink.com 1.10,2013-05-18 18:26:00,
2013-05-18 14:42:00,68.3,67.0,30.14,NW,314,3.0,6.0,94,0.08,,,0.09,weatherlink.com 1.10,2013-05-18 18:42:00,
2013-05-18 14:57:00,68.5,67.0,30.14,North,349,3.0,5.0,94,0.04,,,0.09,weatherlink.com 1.10,2013-05-18 18:57:00,
2013-05-18 15:12:00,68.3,67.0,30.14,NE,40,0.0,5.0,94,0.00,,,0.09,weatherlink.com 1.10,2013-05-18 19:12:00,
2013-05-18 15:27:00,68.5,67.0,30.13,NE,46,2.0,5.0,94,0.00,,,0.09,weatherlink.com 1.10,2013-05-18 19:27:00,
2013-05-18 15:42:00,68.7,67.0,30.13,NNE,15,4.0,7.0,94,0.00,,,0.09,weatherlink.com 1.10,2013-05-18 19:42:00,
2013-05-18 15:57:00,69.5,68.0,30.13,NNE,31,0.0,5.0,94,0.00,,,0.09,weatherlink.com 1.10,2013-05-18 19:57:00,
2013-05-18 16:12:00,70.2,68.0,30.12,NNE,30,4.0,5.0,92,0.00,,,0.09,weatherlink.com 1.10,2013-05-18 20:12:00,
2013-05-18 16:27:00,70.4,68.0,30.13,NE,44,2.0,5.0,91,0.00,,,0.09,weatherlink.com 1.10,2013-05-18 20:27:00,
2013-05-18 16:42:00,71.1,68.0,30.12,North,4,0.0,4.0,91,0.00,,,0.09,weatherlink.com 1.10,2013-05-18 20:42:00,
2013-05-18 16:57:00,71.2,68.0,30.12,East,84,2.0,5.0,90,0.00,,,0.09,weatherlink.com 1.10,2013-05-18 20:57:00,
2013-05-18 17:12:00,71.4,68.0,30.12,ENE,77,4.0,6.0,89,0.00,,,0.09,weatherlink.com 1.10,2013-05-18 21:12:00,
2013-05-18 17:42:00,71.3,68.0,30.11,NE,56,2.0,4.0,89,0.00,,,0.09,weatherlink.com 1.10,2013-05-18 21:42:00,
2013-05-18 17:57:00,72.0,69.0,30.11,NNE,15,3.0,4.0,90,0.00,,,0.09,weatherlink.com 1.10,2013-05-18 21:57:00,
2013-05-18 18:12:00,71.5,68.0,30.11,NNE,25,2.0,4.0,89,0.00,,,0.09,weatherlink.com 1.10,2013-05-18 22:12:00,
2013-05-18 18:27:00,71.8,68.0,30.11,NE,56,0.0,3.0,88,0.00,,,0.09,weatherlink.com 1.10,2013-05-18 22:27:00,
2013-05-18 18:42:00,71.5,68.0,30.11,NNE,15,3.0,3.0,89,0.00,,,0.09,weatherlink.com 1.10,2013-05-18 22:42:00,
2013-05-18 18:57:00,71.1,68.0,30.11,NNW,342,3.0,3.0,90,0.00,,,0.09,weatherlink.com 1.10,2013-05-18 22:57:00,
2013-05-18 19:12:00,70.8,68.0,30.12,North,359,2.0,4.0,92,0.00,,,0.09,weatherlink.com 1.10,2013-05-18 23:12:00,
2013-05-18 19:27:00,70.3,68.0,30.12,North,1,2.0,5.0,92,0.00,,,0.09,weatherlink.com 1.10,2013-05-18 23:27:00,
2013-05-18 19:42:00,69.6,68.0,30.13,NNE,21,4.0,6.0,93,0.00,,,0.09,weatherlink.com 1.10,2013-05-18 23:42:00,
2013-05-18 19:57:00,69.2,67.0,30.14,NNE,33,1.0,4.0,93,0.00,,,0.09,weatherlink.com 1.10,2013-05-18 23:57:00,
2013-05-18 20:12:00,68.9,67.0,30.14,NNE,17,0.0,4.0,94,0.00,,,0.09,weatherlink.com 1.10,2013-05-19 00:12:00,
2013-05-18 20:27:00,68.7,67.0,30.14,NE,40,1.0,4.0,94,0.00,,,0.09,weatherlink.com 1.10,2013-05-19 00:27:00,
2013-05-18 20:42:00,68.4,67.0,30.13,NNE,29,3.0,4.0,94,0.00,,,0.09,weatherlink.com 1.10,2013-05-19 00:42:00,
2013-05-18 20:57:00,68.3,67.0,30.14,North,359,0.0,1.0,94,0.00,,,0.09,weatherlink.com 1.10,2013-05-19 00:57:00,
2013-05-18 21:12:00,68.1,66.0,30.14,NE,54,0.0,2.0,94,0.00,,,0.09,weatherlink.com 1.10,2013-05-19 01:12:00,
2013-05-18 21:27:00,68.0,66.0,30.14,NE,54,1.0,3.0,94,0.01,,,0.10,weatherlink.com 1.10,2013-05-19 01:27:00,
2013-05-18 21:42:00,67.9,66.0,30.15,NE,55,1.0,2.0,94,0.01,,,0.10,weatherlink.com 1.10,2013-05-19 01:42:00,
2013-05-18 21:57:00,67.9,66.0,30.15,ENE,75,2.0,3.0,94,0.01,,,0.10,weatherlink.com 1.10,2013-05-19 01:57:00,
2013-05-18 22:12:00,67.7,66.0,30.16,ENE,57,0.0,5.0,95,0.04,,,0.13,weatherlink.com 1.10,2013-05-19 02:12:00,
2013-05-18 22:27:00,67.6,66.0,30.15,NE,49,0.0,4.0,95,0.04,,,0.14,weatherlink.com 1.10,2013-05-19 02:27:00,
2013-05-18 22:42:00,67.4,66.0,30.15,ENE,75,2.0,4.0,95,0.04,,,0.14,weatherlink.com 1.10,2013-05-19 02:42:00,
2013-05-18 22:57:00,67.3,66.0,30.15,ENE,75,0.0,2.0,95,0.05,,,0.15,weatherlink.com 1.10,2013-05-19 02:57:00,
2013-05-18 23:12:00,67.2,66.0,30.15,East,99,1.0,3.0,95,0.02,,,0.15,weatherlink.com 1.10,2013-05-19 03:12:00,
2013-05-18 23:27:00,66.2,65.0,30.15,SSE,162,4.0,12.0,94,0.03,,,0.17,weatherlink.com 1.10,2013-05-19 03:27:00,
2013-05-18 23:42:00,65.0,63.0,30.16,SE,146,6.0,9.0,94,0.06,,,0.20,weatherlink.com 1.10,2013-05-19 03:42:00,
2013-05-18 23:57:00,64.5,63.0,30.16,SE,143,4.0,4.0,94,0.07,,,0.22,weatherlink.com 1.10,2013-05-19 03:57:00,